EN

Hourly Weather Os'myhovychi

Today, 18 May, Tuesday

Time Temperature Precipitation Wind Pressure Humidity
00:00 +13°C° 0 mm 1 mps 734 mmHg 85%
01:00 +13°C° 0 mm 1 mps 734 mmHg 86%
02:00 +12°C° 0 mm 1 mps 734 mmHg 87%
03:00 +12°C° 0 mm 1 mps 734 mmHg 87%
04:00 +12°C° 0 mm 1 mps 734 mmHg 88%
05:00 +12°C° 0 mm 1 mps 734 mmHg 88%
06:00 +14°C° 0 mm 2 mps 734 mmHg 84%
07:00 +15°C° 0 mm 2 mps 734 mmHg 80%
08:00 +16°C° 0 mm 2 mps 734 mmHg 76%
09:00 +17°C° 0.3 mm 3 mps 734 mmHg 73%
10:00 +18°C° 0.3 mm 3 mps 734 mmHg 70%
11:00 +19°C° 0.3 mm 4 mps 734 mmHg 67%
12:00 +19°C° 0.7 mm 4 mps 734 mmHg 68%
13:00 +19°C° 0.7 mm 5 mps 734 mmHg 68%
14:00 +19°C° 0.7 mm 5 mps 734 mmHg 69%
15:00 +17°C° 0.6 mm 5 mps 734 mmHg 71%
16:00 +17°C° 0.6 mm 5 mps 734 mmHg 72%
17:00 +16°C° 0.6 mm 5 mps 734 mmHg 74%
18:00 +15°C° 0.4 mm 5 mps 735 mmHg 79%
19:00 +14°C° 0.4 mm 5 mps 735 mmHg 84%
20:00 +13°C° 0.4 mm 5 mps 735 mmHg 90%
21:00 +12°C° 0.1 mm 5 mps 735 mmHg 91%
22:00 +11°C° 0.1 mm 6 mps 736 mmHg 92%
23:00 +10°C° 0.1 mm 6 mps 736 mmHg 93%

Tomorrow, 19 May, Wednesday

Time Temperature Precipitation Wind Pressure Humidity
00:00 +10°C° 0 mm 6 mps 736 mmHg 93%
01:00 +10°C° 0 mm 6 mps 736 mmHg 93%
02:00 +9°C° 0 mm 6 mps 736 mmHg 92%
03:00 +9°C° 0 mm 6 mps 737 mmHg 93%
04:00 +9°C° 0 mm 6 mps 737 mmHg 93%
05:00 +9°C° 0 mm 6 mps 737 mmHg 93%
06:00 +9°C° 0.1 mm 6 mps 738 mmHg 92%
07:00 +9°C° 0.1 mm 6 mps 738 mmHg 91%
08:00 +9°C° 0.1 mm 6 mps 739 mmHg 90%
09:00 +10°C° 0 mm 6 mps 739 mmHg 82%
10:00 +13°C° 0 mm 6 mps 739 mmHg 75%
11:00 +14°C° 0 mm 7 mps 739 mmHg 68%
12:00 +15°C° 0 mm 6 mps 739 mmHg 66%
13:00 +15°C° 0 mm 6 mps 740 mmHg 65%
14:00 +16°C° 0 mm 6 mps 740 mmHg 63%
15:00 +15°C° 0 mm 6 mps 740 mmHg 66%
16:00 +15°C° 0 mm 5 mps 740 mmHg 68%
17:00 +15°C° 0 mm 5 mps 740 mmHg 71%
18:00 +13°C° 0 mm 4 mps 740 mmHg 76%
19:00 +12°C° 0 mm 3 mps 740 mmHg 82%
20:00 +11°C° 0 mm 3 mps 741 mmHg 87%
21:00 +10°C° 0 mm 2 mps 741 mmHg 89%
22:00 +9°C° 0 mm 2 mps 741 mmHg 90%
23:00 +9°C° 0 mm 2 mps 740 mmHg 92%

Day after tomorrow, 20 May, Thursday

Time Temperature Precipitation Wind Pressure Humidity
00:00 +8°C° 0 mm 2 mps 740 mmHg 93%
01:00 +8°C° 0 mm 2 mps 740 mmHg 93%
02:00 +8°C° 0 mm 2 mps 740 mmHg 94%
03:00 +8°C° 0 mm 2 mps 740 mmHg 95%
04:00 +7°C° 0 mm 2 mps 740 mmHg 95%
05:00 +7°C° 0 mm 2 mps 741 mmHg 96%
06:00 +9°C° 0 mm 3 mps 741 mmHg 91%
07:00 +10°C° 0 mm 3 mps 741 mmHg 86%
08:00 +12°C° 0 mm 4 mps 741 mmHg 81%
09:00 +13°C° 0.1 mm 5 mps 741 mmHg 76%
10:00 +14°C° 0.1 mm 5 mps 741 mmHg 70%
11:00 +15°C° 0.1 mm 6 mps 741 mmHg 65%
12:00 +15°C° 0 mm 6 mps 741 mmHg 64%
13:00 +15°C° 0 mm 6 mps 741 mmHg 62%
14:00 +15°C° 0 mm 6 mps 740 mmHg 61%
15:00 +15°C° 0 mm 6 mps 741 mmHg 62%
16:00 +15°C° 0 mm 6 mps 741 mmHg 62%
17:00 +15°C° 0 mm 6 mps 741 mmHg 62%
18:00 +14°C° 0 mm 5 mps 741 mmHg 67%
19:00 +13°C° 0 mm 4 mps 741 mmHg 72%
20:00 +11°C° 0 mm 4 mps 741 mmHg 76%
21:00 +10°C° 0 mm 4 mps 741 mmHg 81%
22:00 +10°C° 0 mm 3 mps 742 mmHg 85%
23:00 +9°C° 0 mm 3 mps 742 mmHg 89%

21 May, Friday

Time Temperature Precipitation Wind Pressure Humidity
00:00 +7°C° 0 mm 4 mps 743 mmHg 90%
01:00 +7°C° 0 mm 4 mps 743 mmHg 91%
02:00 +6°C° 0 mm 4 mps 743 mmHg 92%
03:00 +6°C° 0 mm 4 mps 743 mmHg 93%
04:00 +6°C° 0 mm 5 mps 744 mmHg 93%
05:00 +5°C° 0 mm 5 mps 744 mmHg 94%
06:00 +6°C° 0 mm 5 mps 744 mmHg 83%
07:00 +7°C° 0 mm 6 mps 745 mmHg 73%
08:00 +8°C° 0 mm 6 mps 745 mmHg 63%
09:00 +10°C° 0 mm 6 mps 745 mmHg 59%
10:00 +11°C° 0 mm 6 mps 746 mmHg 56%
11:00 +13°C° 0 mm 5 mps 746 mmHg 53%
12:00 +14°C° 0 mm 5 mps 746 mmHg 51%
13:00 +14°C° 0 mm 5 mps 746 mmHg 49%
14:00 +15°C° 0 mm 5 mps 745 mmHg 47%
15:00 +14°C° 0 mm 5 mps 745 mmHg 51%
16:00 +14°C° 0 mm 5 mps 745 mmHg 55%
17:00 +13°C° 0 mm 5 mps 745 mmHg 59%
18:00 +12°C° 0 mm 4 mps 745 mmHg 64%
19:00 +10°C° 0 mm 3 mps 745 mmHg 70%
20:00 +9°C° 0 mm 2 mps 745 mmHg 75%
21:00 +8°C° 0 mm 2 mps 745 mmHg 76%
22:00 +8°C° 0 mm 2 mps 745 mmHg 77%
23:00 +7°C° 0 mm 2 mps 745 mmHg 79%

22 May, Saturday

Time Temperature Precipitation Wind Pressure Humidity
00:00 +7°C° 0 mm 3 mps 745 mmHg 81%
01:00 +5°C° 0 mm 3 mps 745 mmHg 82%
02:00 +5°C° 0 mm 3 mps 745 mmHg 84%
03:00 +5°C° 0 mm 3 mps 745 mmHg 85%
04:00 +5°C° 0 mm 3 mps 745 mmHg 85%
05:00 +5°C° 0 mm 3 mps 745 mmHg 85%
06:00 +8°C° 0 mm 3 mps 745 mmHg 79%
07:00 +10°C° 0 mm 4 mps 745 mmHg 73%
08:00 +12°C° 0 mm 4 mps 745 mmHg 67%
09:00 +13°C° 0 mm 4 mps 744 mmHg 64%
10:00 +14°C° 0 mm 5 mps 744 mmHg 60%
11:00 +16°C° 0 mm 5 mps 744 mmHg 56%
12:00 +17°C° 0 mm 5 mps 744 mmHg 54%
13:00 +17°C° 0 mm 5 mps 744 mmHg 52%
14:00 +19°C° 0 mm 5 mps 744 mmHg 50%
15:00 +19°C° 0 mm 4 mps 743 mmHg 52%
16:00 +19°C° 0 mm 4 mps 743 mmHg 54%
17:00 +19°C° 0 mm 3 mps 743 mmHg 55%
18:00 +17°C° 0 mm 3 mps 743 mmHg 62%
19:00 +16°C° 0 mm 3 mps 742 mmHg 68%
20:00 +13°C° 0 mm 3 mps 742 mmHg 75%
21:00 +13°C° 0 mm 3 mps 742 mmHg 75%
22:00 +12°C° 0 mm 3 mps 743 mmHg 76%
23:00 +11°C° 0 mm 4 mps 743 mmHg 77%

23 May, Sunday

Time Temperature Precipitation Wind Pressure Humidity
00:00 +11°C° 0 mm 3 mps 743 mmHg 78%
01:00 +11°C° 0 mm 3 mps 742 mmHg 79%
02:00 +10°C° 0 mm 3 mps 742 mmHg 80%
03:00 +10°C° 0 mm 3 mps 742 mmHg 80%
04:00 +10°C° 0 mm 3 mps 742 mmHg 80%
05:00 +10°C° 0 mm 3 mps 741 mmHg 80%
06:00 +11°C° 0.1 mm 3 mps 742 mmHg 81%
07:00 +11°C° 0.1 mm 3 mps 742 mmHg 82%
08:00 +13°C° 0.1 mm 2 mps 742 mmHg 83%
09:00 +12°C° 0.1 mm 3 mps 742 mmHg 83%
10:00 +12°C° 0.1 mm 3 mps 743 mmHg 84%
11:00 +13°C° 0.1 mm 3 mps 743 mmHg 85%
12:00 +14°C° 0.1 mm 3 mps 743 mmHg 79%
13:00 +16°C° 0.1 mm 3 mps 743 mmHg 74%
14:00 +17°C° 0.1 mm 3 mps 743 mmHg 69%
15:00 +17°C° 0 mm 3 mps 743 mmHg 67%
16:00 +17°C° 0 mm 2 mps 743 mmHg 66%
17:00 +17°C° 0 mm 2 mps 743 mmHg 64%
18:00 +16°C° 0 mm 2 mps 743 mmHg 69%
19:00 +14°C° 0 mm 1 mps 743 mmHg 73%
20:00 +13°C° 0 mm 1 mps 743 mmHg 78%
21:00 +12°C° 0 mm 1 mps 744 mmHg 79%
22:00 +12°C° 0 mm 1 mps 744 mmHg 80%
23:00 +10°C° 0 mm 2 mps 744 mmHg 82%
Show more

We Need Your Consent

Meteoprog and our Service Providers may store and access personal data such as cookies, device identifiers or other similar technologies on your device and process such data to personalise content and ads, as well as provide social media features and to analyse the traffic.

  • Store and/or access information on your device

    Cookies, device identifiers or other information can be stored or accessed on your device for the purposes indicated above.

  • Personalised ads and content, ad and content measurement, audience insights, and products development

    Ads and content can be personalised based on a profile. More data can be added to better personalise ads and content. Ad and content performance can be measured. Insights about the audience who saw the ads and content can be derived. Such data can be used to develop or improve user’s experience, systems and software.

By clicking ‘I Agree’ you will allow the use of indicated cookies, device identifiers, web beacons or other similar technologies. Your settings can be changed in the browser on your device.

For certain purposes, legitimate interests may be relied on, rather than consent. You can read more about this in our Privacy and Cookie Policy.